Location: Newark
(43.6583°N, 1.6617°E)
Time: 22:36:14
(UTC+00:00)

Transit 4A - Pass Details

Date: 28 August 2019
Orbit: 865 x 980 km, 66.8° (Epoch: 15 September)

Event Time Altitude Azimuth Distance (km) Brightness Sun altitude
Rises 03:39:52 0° 308° (NW) 3,596 10.8 -16.1°
Enters shadow 03:42:36 - 291° (WNW) 2,952 10.2 -15.7°
Reaches altitude 10° 03:45:20 10° 268° (W) 2,606 - -15.3°
Maximum altitude 03:46:03 10° 261° (W) 2,585 - -15.2°
Drops below altitude 10° 03:46:46 10° 254° (WSW) 2,594 - -15.1°
Sets 03:52:07 0° 214° (SSW) 3,491 - -14.2°
